Location: Birkenwerder
(52.6919°N, 13.2774°E)
Time: 01:07:07
(UTC+00:00)

Daily predictions for brighter satellites

Satellite Brightness Start Highest point End
(mag) Time Altitude Azimuth Time Altitude Azimuth Time Altitude Azimuth
STARLINK-1337 2.9 00:00:04 10° W 00:03:12 83° N 00:06:19 10° E
STARLINK-1342 2.9 00:00:23 10° W 00:03:31 83° N 00:06:39 10° E
STARLINK-1289 4.4 00:02:33 24° S 00:03:45 29° SE 00:07:02 10° E
STARLINK-1364 2.9 00:00:43 10° W 00:03:51 83° N 00:06:59 10° E
STARLINK-1376 2.9 00:01:03 10° W 00:04:11 83° N 00:07:19 10° E
STARLINK-1360 2.9 00:01:23 10° W 00:04:32 83° N 00:07:40 10° E
STARLINK-1361 2.9 00:01:44 10° W 00:04:53 83° N 00:08:00 10° E
STARLINK-1268 4.0 00:04:28 25° SSE 00:04:56 26° SSE 00:07:35 10° E
STARLINK-1367 2.9 00:02:00 10° W 00:05:10 83° N 00:08:20 10° E
STARLINK-1301 4.3 00:03:55 23° S 00:05:21 31° SSE 00:08:47 10° E
STARLINK-1366 2.9 00:02:23 10° W 00:05:31 83° N 00:08:40 10° E
Cosmos 1400 Rocket 3.1 00:01:43 10° N 00:05:52 71° ENE 00:09:11 15° SSE
DELTA 2 DEB (DPAF) 4.3 00:02:34 14° SSE 00:06:27 72° ENE 00:10:55 10° NNW
STARLINK-1303 4.3 00:05:53 23° S 00:07:12 30° SSE 00:10:32 10° E
Cosmos 2227 Rocket 3.6 00:03:01 10° NW 00:07:20 23° WSW 00:10:10 16° SW
STARLINK-66 3.5 00:07:08 27° SSW 00:08:15 37° SSE 00:11:16 10° E
Cosmos 1570 Rocket 4.0 00:04:53 20° SSW 00:08:40 82° ESE 00:13:58 10° NNE
STARLINK-1338 3.5 00:05:41 10° W 00:09:41 84° N 00:13:41 10° E
Cosmos 1709 Rocket 4.0 00:05:05 19° SSW 00:09:43 83° W 00:15:58 10° N
Cosmos 1763 Rocket 3.6 00:05:57 17° SW 00:09:50 67° WNW 00:14:54 10° NNE
STARLINK-1316 3.9 00:09:24 26° S 00:10:04 28° SSE 00:12:49 10° E
STARLINK-1312 4.3 00:09:13 23° S 00:10:40 31° SSE 00:14:03 10° E
STARLINK-1257 3.9 00:10:14 26° S 00:10:57 29° SSE 00:13:43 10° E
STARLINK-1256 3.9 00:11:11 26° S 00:11:55 29° SSE 00:14:41 10° E
NOSS 7 (E) 4.4 00:09:44 17° SW 00:12:06 70° NW 00:15:10 10° NE
STARLINK-58 4.2 00:11:42 22° SSE 00:12:16 23° SE 00:14:54 10° E
Cosmos 2084 Rocket 4.2 00:08:17 10° WNW 00:12:22 36° SW 00:14:58 19° S
STARLINK-52 2.8 00:09:31 10° W 00:12:44 74° SSW 00:15:56 10° ESE
STARLINK-1213 3.9 00:12:02 26° S 00:12:48 29° SSE 00:15:34 10° E
STARLINK-1263 3.9 00:12:54 26° S 00:13:41 30° SSE 00:16:28 10° E
Cosmos 2227 4.2 00:08:12 10° NNW 00:14:00 89° SW 00:19:47 10° SSE
STARLINK-1259 3.8 00:13:48 26° S 00:14:37 30° SSE 00:17:25 10° E
Cosmos 2298 Rocket 4.0 00:09:35 10° NNW 00:14:56 78° WSW 00:19:50 12° SSE
STARLINK-1265 3.8 00:14:10 26° S 00:15:02 30° SSE 00:17:51 10° E
STARLINK-1285 3.8 00:14:37 26° S 00:15:29 30° SSE 00:18:17 10° E
STARLINK-1296 3.8 00:16:22 26° S 00:17:17 31° SSE 00:20:07 10° E
SL-16 R/B 2.8 00:11:11 10° SSE 00:17:19 71° ENE 00:23:31 10° NNW
STARLINK-1371 3.5 00:14:02 10° W 00:18:01 84° N 00:22:00 10° E
STARLINK-1260 3.8 00:17:14 26° S 00:18:11 31° SSE 00:21:01 10° E
Cosmos 1758 Rocket 3.7 00:15:28 20° SSW 00:18:26 69° WNW 00:22:53 10° N
STARLINK-1318 3.7 00:18:06 25° S 00:19:05 32° SSE 00:21:55 10° E
GEOS 3 Rocket 4.0 00:13:59 10° ESE 00:19:11 69° NE 00:24:30 10° NW
STARLINK-75 3.5 00:18:02 25° SSW 00:19:28 40° SSE 00:22:32 10° E
STARLINK-1275 3.7 00:18:59 25° S 00:20:00 32° SSE 00:22:51 10° E
STARLINK-1309 3.7 00:19:50 25° S 00:20:52 33° SSE 00:23:43 10° E
CZ-4 R/B 4.3 00:16:42 10° N 00:21:18 50° WNW 00:24:50 16° SW
STARLINK-1282 3.7 00:20:42 25° SSW 00:21:46 33° SSE 00:24:37 10° E
STARLINK-1341 3.5 00:18:25 10° W 00:22:25 85° N 00:26:24 10° E
STARLINK-1283 4.1 00:20:03 20° SSW 00:22:26 41° SSE 00:26:19 10° E
IRAS Rocket 4.3 00:18:05 16° S 00:22:36 64° WSW 00:28:07 10° NNW
STARLINK-1313 3.5 00:21:38 25° SSW 00:22:51 36° SSE 00:25:46 10° E
STARLINK-80 4.0 00:21:06 21° SSW 00:23:05 38° SSE 00:26:38 10° E
STARLINK-1279 3.5 00:22:33 25° SSW 00:23:46 37° SSE 00:26:42 10° E
STARLINK-1298 3.6 00:23:16 25° SSW 00:24:26 34° SSE 00:27:18 10° E
STARLINK-1293 3.6 00:24:10 25° SSW 00:25:21 35° SSE 00:28:14 10° E
STARLINK-1374 3.5 00:22:45 10° W 00:26:46 85° N 00:30:48 10° E
STARLINK-1255 3.6 00:25:54 24° SSW 00:27:09 35° SSE 00:30:03 10° E
SL-16 R/B 3.6 00:22:44 11° SSE 00:27:21 29° ESE 00:32:10 10° NE
Cosmos 2208 Rocket 4.1 00:23:37 18° SSW 00:27:40 86° WNW 00:33:06 10° NNE
STARLINK-22 3.5 00:26:16 23° SSW 00:27:44 38° SSE 00:30:46 10° E
STARLINK-1444 4.0 00:26:06 10° W 00:26:52 17° W 00:26:52 17° W
STARLINK 1040 2.2 00:26:22 17° WSW 00:28:10 77° SSE 00:30:43 10° E
STARLINK-1297 3.9 00:26:32 22° SSW 00:28:22 37° SSE 00:31:44 10° E
STARLINK-1452 4.2 00:26:45 10° W 00:27:18 15° W 00:27:18 15° W
STARLINK-1311 3.3 00:28:28 25° SSW 00:29:41 39° SSE 00:32:29 10° E
STARLINK-1398 4.4 00:28:06 10° W 00:28:28 13° W 00:28:28 13° W
STARLINK-1436 (VISORSAT) 4.4 00:28:11 10° W 00:28:34 13° W 00:28:34 13° W
CZ-2D R/B 2.8 00:25:23 10° NNE 00:30:25 45° E 00:35:02 12° S
STARLINK-1443 4.5 00:28:35 10° W 00:28:52 12° W 00:28:52 12° W
STARLINK-1434 4.5 00:28:38 10° W 00:28:54 12° W 00:28:54 12° W
STARLINK-1339 3.5 00:27:01 10° W 00:31:01 86° N 00:35:01 10° E
Cosmos-2242 3.6 00:27:40 10° NNW 00:31:40 41° W 00:34:23 18° SSW
MOZ.5/SAFIR/RUBIN 5/SL-8 3.7 00:29:16 13° SSE 00:33:20 81° WSW 00:38:03 10° NNW
USA 215 3.9 00:28:36 10° SSE 00:34:24 33° SW 00:40:14 10° WNW
Cosmos 2221 3.1 00:30:16 10° N 00:34:34 55° ENE 00:38:52 10° SSE
STARLINK-1377 3.5 00:31:26 10° W 00:35:27 86° N 00:39:28 10° E
Cosmos 1953 Rocket 3.6 00:33:32 18° SSW 00:36:48 79° WNW 00:41:12 10° N
BREEZE-M R/B 2.8 00:32:39 10° W 00:38:03 57° S 00:41:03 10° ESE
STARLINK-42 3.0 00:36:26 19° SW 00:38:25 51° SSE 00:41:28 10° E
GP-B 3.1 00:34:51 10° N 00:39:20 88° W 00:42:59 15° S
STARLINK-1353 3.5 00:35:46 10° W 00:39:47 87° N 00:43:49 10° E
STARLINK-1029 4.0 00:39:04 21° S 00:40:22 28° SSE 00:43:10 10° E
STARLINK-60 3.6 00:37:38 10° W 00:40:33 32° SSW 00:43:27 10° SE
SeaSat 1 4.4 00:36:45 10° NNE 00:40:38 24° NW 00:44:29 10° W
FALCON 9 DEB 3.0 00:37:41 10° W 00:41:07 72° SSW 00:44:35 10° ESE
STARLINK-34 3.6 00:40:02 22° SSW 00:41:27 34° SSE 00:44:17 10° E
Cosmos 1315 Rocket 3.1 00:37:31 10° N 00:41:27 64° ENE 00:45:22 10° SSE
Cosmos 1842 Rocket 3.7 00:37:03 10° N 00:41:34 77° E 00:45:59 10° SSE
STARLINK-41 3.0 00:40:10 19° SW 00:42:08 51° SSE 00:45:07 10° E
CZ-4C R/B 3.6 00:38:35 13° S 00:42:32 77° WSW 00:47:00 10° NNW
STARLINK-1375 3.5 00:40:07 10° W 00:44:09 88° N 00:48:11 10° E
STARLINK-1272 3.6 00:42:01 18° SW 00:44:22 45° SSE 00:47:46 10° E
STARLINK-62 3.6 00:43:45 21° SSW 00:45:17 36° SSE 00:48:08 10° E
Cosmos 540 Rocket 3.7 00:41:07 15° SW 00:45:20 65° WNW 00:50:27 10° NNE
Helios 1B rocket 3.8 00:43:26 10° N 00:47:03 29° WNW 00:50:24 11° WSW
STARLINK-1350 3.5 00:44:28 10° W 00:48:29 89° N 00:52:31 10° E
STARLINK-1307 3.6 00:46:48 16° SW 00:49:31 48° SSE 00:53:07 10° E
Cosmos 2360 Rocket 4.1 00:45:45 10° SSE 00:49:47 20° E 00:53:49 10° NE
STARLINK-1352 3.5 00:48:43 10° W 00:52:44 89° SSW 00:56:45 10° E
STARLINK-1290 3.6 00:50:11 15° SW 00:53:01 50° SSE 00:56:39 10° E
Cosmos 2058 4.2 00:51:20 10° SSE 00:55:12 36° E 00:59:05 10° NNE
Meteor 1-29 4.4 00:52:50 10° N 00:55:43 26° WNW 00:58:11 12° WSW
Cosmos 1980 Rocket 2.4 00:51:50 13° SW 00:56:48 70° NW 01:02:30 10° NNE
Cosmos 2074 Rocket 4.1 00:51:22 13° S 00:57:05 88° W 01:03:24 10° N
STARLINK-1368 3.5 00:53:18 10° W 00:57:20 88° S 01:01:22 10° ESE
Cosmos 1455 4.3 00:56:01 10° NW 00:58:04 14° W 01:00:05 10° WSW
CZ-4B R/B 4.1 00:54:08 10° NNE 00:59:20 57° ESE 01:04:31 10° S
STARLINK-1317 3.6 00:56:33 13° SW 00:59:58 58° SSE 01:03:50 10° E
STARLINK-1369 3.5 00:57:43 10° W 01:01:46 86° S 01:05:48 10° ESE
STARLINK-55 2.9 01:00:34 10° WSW 01:03:46 73° SSE 01:06:58 10° E
STARLINK-1274 3.3 01:00:55 13° SW 01:03:59 57° SSE 01:07:28 10° E
STARLINK-43 3.3 01:01:26 10° W 01:05:07 90° SSW 01:08:50 10° E
STARLINK-1372 3.5 01:01:58 10° W 01:05:59 85° SSW 01:10:00 10° ESE
STARLINK-1291 3.4 01:04:15 12° WSW 01:07:41 60° SSE 01:11:22 10° E
ADEOS II 3.2 01:03:30 10° NNE 01:08:28 40° E 01:13:23 10° SSE
Meteor 1-11 4.4 01:03:54 13° SSW 01:08:49 62° WNW 01:14:23 10° N
Cosmos 2263 Rocket 2.6 01:04:36 10° NW 01:09:54 44° WSW 01:15:08 10° S
STARLINK-1378 3.5 01:06:36 10° W 01:10:37 83° SSW 01:14:39 10° ESE
STARLINK-1264 3.4 01:07:26 11° WSW 01:10:59 62° SSE 01:14:42 10° E
IRS-1D 4.2 01:06:38 10° NNE 01:11:49 52° E 01:16:51 10° S
STARLINK-29 3.6 01:10:24 10° W 01:13:21 33° SSW 01:16:16 10° SE
AQUA 4.0 01:08:48 10° NNE 01:13:35 72° ESE 01:18:21 10° S
STARLINK-1267 3.4 01:10:40 10° WSW 01:14:21 64° SSE 01:18:03 10° E
NOSS 2-1 (C) 3.6 01:12:05 14° SSW 01:14:47 45° SE 01:18:22 10° NE
SL-4 R/B 3.1 01:10:33 10° W 01:14:48 31° SW 01:18:55 10° SSE
STARLINK-1379 3.5 01:11:04 10° W 01:15:07 81° SSW 01:19:10 10° ESE
STARLINK-28 2.9 01:12:05 10° WSW 01:15:18 82° SSE 01:18:31 10° E
UNK 4.2 01:11:40 11° S 01:15:52 45° W 01:20:18 10° NNW
USA 229 DEB 4.1 01:09:00 10° NW 01:15:53 49° WSW 01:23:06 10° SSE
USA 229 4.1 01:09:05 10° NW 01:16:00 49° WSW 01:23:13 10° SSE
NOSS 3-1 (C) 4.3 01:09:41 10° NW 01:16:44 47° WSW 01:24:46 10° SSE
STARLINK-64 3.9 01:14:12 14° SW 01:17:00 39° SSE 01:20:22 10° E
NPP 3.7 01:12:04 10° NNE 01:17:31 89° ESE 01:22:54 10° SSW
ARIANE 5 R/B 4.0 01:13:44 10° NNE 01:18:09 30° E 01:22:31 10° SSE
STARLINK-1329 3.5 01:14:53 10° W 01:18:55 79° SSW 01:22:58 10° ESE
NOSS 2-1 (D) 3.5 01:16:50 13° SSW 01:19:40 50° SE 01:23:19 10° NE
STARLINK-1207 3.3 01:17:23 10° WSW 01:21:06 68° SSE 01:24:51 10° E
Cosmos 2184 Rocket 4.2 01:16:27 11° SSW 01:22:17 64° WNW 01:28:27 10° N
STARLINK-1362 3.5 01:19:24 10° W 01:23:27 77° SSW 01:27:30 10° ESE
ERS-2 3.8 01:20:08 10° SE 01:23:30 35° ENE 01:26:52 10° N
CZ-4C R/B 3.4 01:18:49 10° W 01:24:05 44° NNW 01:30:27 10° NE
Cosmos 1844 4.4 01:18:21 10° NNW 01:24:08 60° NE 01:29:51 10° SE
STARLINK-1266 3.3 01:20:47 10° WSW 01:24:30 70° SSE 01:28:15 10° E
BREEZE-M DEB (TANK) 2.8 01:23:14 14° SW 01:24:38 31° SSE 01:27:37 10° E
NOSS 3-1 (A) 4.2 01:17:47 10° NW 01:25:01 58° SW 01:33:20 10° SSE
STARLINK-33 2.8 01:22:22 10° WSW 01:25:29 83° SSE 01:28:37 10° E
Cosmos 1892 2.9 01:22:10 10° S 01:25:56 67° E 01:29:42 10° NNE
STARLINK-1299 4.4 01:24:06 12° SW 01:27:48 40° SSE 01:31:48 10° E
STARLINK-1284 3.3 01:24:09 10° WSW 01:27:54 72° SSE 01:31:39 10° E
STARLINK-1373 3.5 01:23:56 10° W 01:27:58 75° SSW 01:32:00 10° ESE
STARLINK-1320 2.9 01:25:03 10° W 01:28:07 57° SSW 01:31:11 10° ESE
STARLINK-1322 2.9 01:25:24 10° W 01:28:29 57° SSW 01:31:33 10° ESE
BREEZE-M DEB (TANK) 1.6 01:26:31 10° W 01:28:44 37° S 01:31:16 10° ESE
STARLINK-1324 2.9 01:25:43 10° W 01:28:47 57° SSW 01:31:52 10° ESE
STARLINK-26 3.1 01:25:30 10° WSW 01:28:57 86° S 01:32:24 10° E
Cosmos 1869 3.6 01:25:20 10° NNW 01:29:04 46° W 01:32:46 10° SSW
STARLINK-1294 2.9 01:26:01 10° W 01:29:06 57° SSW 01:32:12 10° ESE
STARLINK-1302 4.5 01:25:46 12° SSW 01:29:17 36° SSE 01:33:06 10° E
STARLINK-1261 2.9 01:26:24 10° W 01:29:29 56° SSW 01:32:33 10° ESE
STARLINK-1325 2.9 01:26:45 10° W 01:29:50 56° SSW 01:32:54 10° ESE
STARLINK-1333 2.9 01:27:07 10° W 01:30:12 56° SSW 01:33:15 10° ESE
STARLINK-1334 2.9 01:27:25 10° W 01:30:29 56° SSW 01:33:33 10° ESE
STARLINK-1326 2.9 01:27:44 10° W 01:30:48 55° SSW 01:33:51 10° ESE
STARLINK-1323 2.9 01:28:07 10° W 01:31:11 55° SSW 01:34:15 10° ESE
STARLINK-1258 3.3 01:27:36 10° WSW 01:31:20 74° SSE 01:35:05 10° E
STARLINK-1349 2.9 01:28:24 10° W 01:31:29 55° SSW 01:34:33 10° ESE
STARLINK-1336 2.9 01:28:44 10° W 01:31:48 55° SSW 01:34:52 10° ESE
STARLINK-1331 2.9 01:29:07 10° W 01:32:11 54° SSW 01:35:15 10° ESE
STARLINK-1344 2.9 01:29:25 10° W 01:32:29 54° SSW 01:35:33 10° ESE
STARLINK-1390 3.5 01:28:31 10° W 01:32:34 73° SSW 01:36:37 10° ESE
STARLINK-1343 2.9 01:29:48 10° W 01:32:52 54° SSW 01:35:55 10° ESE
STARLINK-1346 3.0 01:30:04 10° W 01:33:11 54° SSW 01:36:16 10° ESE
STARLINK-1328 2.9 01:30:31 10° W 01:33:35 54° SSW 01:36:39 10° ESE
STARLINK-1354 2.9 01:30:49 10° W 01:33:53 53° SSW 01:36:56 10° ESE
STARLINK-1347 2.9 01:31:06 10° W 01:34:10 53° SSW 01:37:13 10° ESE
STARLINK-1273 4.4 01:30:32 11° SW 01:34:14 38° SSE 01:38:05 10° E
STARLINK-1357 3.0 01:31:32 10° W 01:34:35 53° SSW 01:37:39 10° SE
STARLINK-1292 3.3 01:31:01 10° WSW 01:34:46 75° SSE 01:38:31 10° E
STARLINK-1335 3.0 01:31:49 10° W 01:34:52 53° SSW 01:37:56 10° SE
ATLAS CENTAUR R/B 4.3 01:32:33 10° NNW 01:34:52 15° N 01:37:09 10° NE
STARLINK-1327 3.0 01:32:10 10° W 01:35:13 53° SSW 01:38:16 10° SE
Cosmos 2322 Rocket 2.4 01:29:51 10° SSW 01:35:26 71° ESE 01:41:03 10° NE
STARLINK-1340 3.0 01:32:28 10° W 01:35:31 52° SSW 01:38:34 10° SE
STARLINK-1356 3.0 01:32:51 10° W 01:35:55 52° SSW 01:38:57 10° SE
STARLINK-1345 3.0 01:33:09 10° W 01:36:13 52° SSW 01:39:15 10° SE
STARLINK-1355 3.0 01:33:31 10° W 01:36:34 52° SSW 01:39:37 10° SE
STARLINK-1321 3.0 01:33:52 10° W 01:36:55 52° SSW 01:39:58 10° SE
In-Cosmos 22 Rocket 4.2 01:31:36 10° S 01:37:12 88° E 01:42:41 10° NNE
STARLINK-1358 3.0 01:34:15 10° W 01:37:18 51° SSW 01:40:21 10° SE
STARLINK-1332 3.0 01:34:32 10° W 01:37:35 51° SSW 01:40:38 10° SE
STARLINK-1348 3.0 01:34:52 10° W 01:37:56 51° SSW 01:40:57 10° SE
STARLINK-1330 3.0 01:35:12 10° W 01:38:15 51° SSW 01:41:18 10° SE
STARLINK-1365 3.5 01:34:30 10° WNW 01:38:33 69° SSW 01:42:36 10° ESE
STARLINK-1363 3.0 01:35:32 10° W 01:38:35 51° SSW 01:41:37 10° SE
STARLINK-1337 3.0 01:35:54 10° W 01:38:57 50° SSW 01:42:00 10° SE
STARLINK-1288 4.3 01:35:19 10° SW 01:39:11 40° SSE 01:43:04 10° E
STARLINK-1342 3.0 01:36:13 10° W 01:39:16 50° SSW 01:42:19 10° SE
Cosmos 1461 4.2 01:34:45 10° NW 01:39:17 51° NE 01:43:53 10° ESE
Resurs 1-4 Rocket 2.5 01:34:13 10° N 01:39:24 56° WNW 01:44:35 10° SW
STARLINK-1364 3.0 01:36:34 10° W 01:39:37 50° SSW 01:42:39 10° SE
STARLINK-1376 3.0 01:36:54 10° W 01:39:57 50° SSW 01:42:59 10° SE
STARLINK-1360 3.0 01:37:14 10° W 01:40:17 50° SSW 01:43:19 10° SE
STARLINK-1268 2.8 01:37:18 10° WSW 01:40:23 80° SSE 01:43:30 10° E
STARLINK-1361 3.0 01:37:35 10° W 01:40:38 49° SSW 01:43:39 10° SE
STARLINK-1367 3.1 01:37:51 10° W 01:40:56 49° SSW 01:43:59 10° SE
STARLINK-1366 3.0 01:38:14 10° W 01:41:16 49° SSW 01:44:18 10° SE
STARLINK-1289 3.3 01:37:51 10° WSW 01:41:37 79° SSE 01:45:23 10° E
Cosmos 1697 Rocket 4.3 01:38:38 10° W 01:43:27 27° NW 01:48:16 10° NNE
STARLINK-1301 3.4 01:39:44 10° WSW 01:43:36 81° SSE 01:47:28 10° E
STARLINK-1308 4.2 01:40:15 10° SW 01:44:11 43° SSE 01:48:07 10° E
STARLINK-66 2.9 01:41:01 10° W 01:44:14 88° N 01:47:28 10° E
Cosmos 1076 Rocket 3.6 01:40:22 10° SSW 01:44:45 81° W 01:49:09 10° N
STARLINK-1303 3.3 01:41:20 10° WSW 01:45:06 81° SSE 01:48:53 10° E
STARLINK-1316 2.8 01:42:31 10° WSW 01:45:39 83° SSE 01:48:47 10° E
Cosmos 2151 3.8 01:42:22 10° S 01:46:31 50° E 01:50:42 10° NNE
STARLINK-1257 2.8 01:43:24 10° WSW 01:46:32 84° S 01:49:41 10° E
COBE Rocket 4.2 01:41:58 10° SSE 01:47:04 83° ENE 01:52:17 10° NNW
STARLINK-1256 2.8 01:44:23 10° WSW 01:47:30 84° S 01:50:39 10° E
STARLINK-58 2.9 01:44:48 10° WSW 01:47:59 75° SSE 01:51:09 10° E
H-2A R/B 2.9 01:43:57 10° SSE 01:48:19 57° ENE 01:52:46 10° N
STARLINK-1213 2.8 01:45:16 10° WSW 01:48:23 85° S 01:51:32 10° E
STARLINK-52 4.1 01:45:54 10° W 01:48:31 23° SW 01:51:08 10° SSE
STARLINK-1312 3.3 01:44:49 10° WSW 01:48:36 82° SSE 01:52:22 10° E
STARLINK-1338 3.5 01:44:42 10° WNW 01:48:39 63° SSW 01:52:36 10° ESE
STARLINK-1263 2.8 01:46:09 10° WSW 01:49:16 85° S 01:52:24 10° E
STARLINK-1259 2.8 01:47:05 10° WSW 01:50:13 86° S 01:53:22 10° E
STARLINK-1265 2.9 01:47:28 10° WSW 01:50:37 86° S 01:53:48 10° E
STARLINK-1285 2.8 01:47:58 10° WSW 01:51:05 86° S 01:54:14 10° E
STARLINK-1296 2.8 01:49:46 10° WSW 01:52:55 87° SSE 01:56:02 10° E
STARLINK-1260 2.8 01:50:40 10° WSW 01:53:48 87° S 01:56:57 10° E
STARLINK-1304 4.1 01:50:06 10° SW 01:54:05 47° SSE 01:58:04 10° E
Cosmos 1408 2.6 01:50:28 10° S 01:54:08 85° E 01:57:50 10° NNE
STARLINK-1318 2.8 01:51:34 10° W 01:54:42 87° S 01:57:51 10° E
STARLINK-75 3.0 01:52:13 10° W 01:55:28 87° N 01:58:43 10° E
STARLINK-1275 2.9 01:52:29 10° W 01:55:37 88° S 01:58:46 10° E
STARLINK-1309 2.8 01:53:22 10° W 01:56:30 88° S 01:59:38 10° E
Cosmos 2154 Rocket 4.3 01:50:33 10° SSW 01:56:40 56° WNW 02:02:48 10° N
STARLINK-1371 3.5 01:52:58 10° WNW 01:56:53 58° SSW 02:00:46 10° ESE
STARLINK-1282 2.8 01:54:16 10° W 01:57:23 89° SSW 02:00:32 10° E
GEOS 3 Rocket 4.3 01:52:52 10° S 01:57:32 33° WSW 02:02:18 10° WNW
STARLINK-1313 2.9 01:55:23 10° W 01:58:31 89° N 02:01:40 10° E
STARLINK-48 3.5 01:54:47 10° WSW 01:58:39 69° SSE 02:02:32 10° E
STARLINK-1279 2.9 01:56:19 10° W 01:59:27 88° N 02:02:35 10° E
STARLINK-1298 2.9 01:56:56 10° W 02:00:04 89° ESE 02:03:13 10° E
STARLINK-1278 4.0 01:56:03 10° SW 02:00:13 55° SSE 02:04:24 10° ENE
Cosmos 1825 2.5 01:57:00 10° S 02:00:44 68° E 02:04:29 10° NNE
SL-16 R/B 3.6 01:56:27 10° SSW 02:01:30 26° W 02:06:37 10° NW
